Date String (YYYY-MM-DD hh:mm:ss) UTC,Instrument flags,Ambient pressure (hPa),Sample flow (lpm),Bypass flow (lpm),Sample temperature (°C),Ambient temperature (°C),ASC tube jacket temperature (°C),LED temperature (°C),Box temperature (°C),Sample RH (%),Span deviation,Mass concentration (μg/m³),Mass concentration (μg/m³),Mass concentration (μg/m³)
DateTimeUTC,F1_M11,P_M11,Q1_M11,Q2_M11,T1_M11,T2_M11,T3_M11,T4_M11,T5_M11,U1_M11,ZSPAN_M11,X0_M11,X2_M11,X1_M11
2021-12-07 08:00:00,,0817.4,5.00,0.00,21.9,22.4,00.0,30.8,23.7,09.2,0000.0,0017.89,0004.43,0002.37
2021-12-07 08:01:00,,0817.3,5.01,0.00,21.9,22.1,00.0,30.8,23.7,09.4,0000.0,0020.31,0004.62,0002.54
2021-12-07 08:02:00,,0817.4,5.00,0.00,21.9,21.9,00.0,30.8,23.6,09.5,0000.0,0021.95,0004.71,0002.64
2021-12-07 08:03:00,,0817.3,5.01,0.00,21.9,21.7,00.0,30.9,23.5,09.5,0000.0,0022.65,0004.80,0002.72
2021-12-07 08:04:00,,0817.3,5.01,0.00,21.9,21.6,00.0,30.8,23.5,09.6,0000.0,0022.62,0004.77,0002.70
2021-12-07 08:05:00,,0817.5,4.99,0.00,21.8,21.5,00.0,30.9,23.5,09.6,0000.0,0022.60,0004.68,0002.63
2021-12-07 08:06:00,,0817.5,5.00,0.00,21.8,21.4,00.0,30.8,23.5,09.5,0000.0,0023.29,0004.67,0002.56
2021-12-07 08:07:00,,0817.5,5.01,0.00,21.8,21.3,00.0,30.8,23.5,09.2,0000.0,0024.00,0004.65,0002.56
2021-12-07 08:08:00,,0817.6,5.00,0.00,21.8,21.3,00.0,30.8,23.5,08.8,0000.0,0023.86,0004.90,0002.72
2021-12-07 08:09:00,,0817.6,5.00,0.00,21.8,21.2,00.0,30.8,23.5,08.8,0000.0,0024.26,0005.11,0002.92
2021-12-07 08:10:00,,0817.7,5.00,0.00,21.8,21.2,00.0,30.8,23.4,09.1,0000.0,0023.91,0005.20,0003.05
2021-12-07 08:11:00,,0817.7,5.00,0.00,21.8,21.2,00.0,30.8,23.4,09.0,0000.0,0025.36,0005.26,0003.12
2021-12-07 08:12:00,,0817.8,4.99,0.00,21.8,21.2,00.0,30.8,23.4,08.9,0000.0,0026.10,0005.39,0003.19
2021-12-07 08:13:00,,0817.8,5.01,0.00,21.8,21.2,00.0,30.8,23.4,08.9,0000.0,0026.21,0005.61,0003.29
2021-12-07 08:14:00,,0817.8,4.99,0.00,21.8,21.2,00.0,30.8,23.4,09.0,0000.0,0026.62,0005.81,0003.39
2021-12-07 08:15:00,,0817.8,5.00,0.00,21.8,21.2,00.0,30.8,23.4,09.3,0000.0,0026.83,0005.97,0003.47
2021-12-07 08:16:00,,0817.7,5.01,0.00,21.8,21.2,00.0,30.8,23.5,09.8,0000.0,0026.59,0006.01,0003.48
2021-12-07 08:17:00,,0817.7,4.99,0.00,21.8,21.2,00.0,30.8,23.5,10.0,0000.0,0025.92,0005.99,0003.47
2021-12-07 08:18:00,,0817.8,5.00,0.00,21.8,21.2,00.0,30.8,23.5,09.6,0000.0,0024.83,0005.91,0003.45
2021-12-07 08:19:00,,0817.8,5.00,0.00,21.8,21.2,00.0,30.8,23.5,09.0,0000.0,0024.56,0005.84,0003.42
2021-12-07 08:20:00,,0817.7,5.01,0.00,21.8,21.3,00.0,30.8,23.5,09.0,0000.0,0024.54,0005.80,0003.39
2021-12-07 08:21:00,,0817.7,5.00,0.00,21.9,22.1,00.0,30.8,23.7,09.2,0000.0,0024.11,0005.79,0003.35
2021-12-07 08:22:00,,0817.6,5.00,0.00,22.0,22.9,00.0,30.9,24.0,09.3,0000.0,0022.86,0005.69,0003.33
2021-12-07 08:23:00,,0817.6,5.01,0.00,22.2,23.2,00.0,30.9,24.2,09.4,0000.0,0019.07,0005.54,0003.25
2021-12-07 08:24:00,,0817.5,5.00,0.00,22.2,22.9,00.0,31.0,24.2,09.7,0000.0,0017.28,0005.30,0003.13
2021-12-07 08:25:00,,0817.6,5.00,0.00,22.3,22.7,00.0,31.0,24.1,09.5,0000.0,0016.13,0005.10,0002.96
2021-12-07 08:26:00,,0817.6,5.00,0.00,22.3,22.5,00.0,31.0,24.1,09.0,0000.0,0017.45,0005.15,0002.93
2021-12-07 08:27:00,,0817.6,5.01,0.00,22.3,22.3,00.0,31.1,24.0,09.1,0000.0,0017.70,0005.14,0002.97
2021-12-07 08:28:00,,0817.6,4.99,0.00,22.3,22.2,00.0,31.1,24.0,09.3,0000.0,0017.84,0005.21,0003.04
2021-12-07 08:29:00,,0817.6,5.01,0.00,22.3,22.1,00.0,31.1,24.0,09.6,0000.0,0017.90,0005.24,0003.05
2021-12-07 08:30:00,,0817.5,5.00,0.00,22.3,22.0,00.0,31.1,24.0,09.7,0000.0,0017.52,0005.07,0002.89
2021-12-07 08:31:00,,0817.5,4.99,0.00,22.3,21.9,00.0,31.1,24.0,09.9,0000.0,0016.41,0004.75,0002.66
2021-12-07 08:32:00,,0817.5,4.99,0.00,22.2,21.8,00.0,31.1,23.9,09.7,0000.0,0015.95,0004.50,0002.49
2021-12-07 08:33:00,,0817.5,5.00,0.00,22.2,21.7,00.0,31.1,23.9,09.9,0000.0,0016.28,0004.39,0002.35
2021-12-07 08:34:00,,0817.5,5.01,0.00,22.2,21.7,00.0,31.1,23.9,09.8,0000.0,0016.91,0004.33,0002.25
2021-12-07 08:35:00,,0817.5,4.99,0.00,22.2,21.6,00.0,31.1,23.8,09.8,0000.0,0017.19,0004.38,0002.24
2021-12-07 08:36:00,,0817.5,5.00,0.00,22.2,21.6,00.0,31.1,23.8,09.9,0000.0,0017.03,0004.36,0002.20
2021-12-07 08:37:00,,0817.5,5.01,0.00,22.1,21.5,00.0,31.1,23.8,10.0,0000.0,0014.68,0004.08,0002.04
2021-12-07 08:38:00,,0817.5,4.99,0.00,22.1,21.5,00.0,31.1,23.8,10.0,0000.0,0014.59,0003.98,0001.90
2021-12-07 08:39:00,,0817.5,5.00,0.00,22.1,21.4,00.0,31.1,23.7,10.1,0000.0,0015.13,0003.85,0001.77
2021-12-07 08:40:00,,0817.5,5.01,0.00,22.1,21.4,00.0,31.1,23.7,10.2,0000.0,0015.21,0003.75,0001.71
2021-12-07 08:41:00,,0817.5,5.00,0.00,22.0,21.4,00.0,31.1,23.7,10.2,0000.0,0015.11,0003.70,0001.68
2021-12-07 08:42:00,,0817.6,5.00,0.00,22.0,21.3,00.0,31.1,23.6,10.1,0000.0,0014.61,0003.67,0001.68
2021-12-07 08:43:00,,0817.5,4.99,0.00,22.0,21.3,00.0,31.1,23.6,09.6,0000.0,0014.53,0003.73,0001.73
2021-12-07 08:44:00,,0817.5,5.01,0.00,22.0,21.3,00.0,31.1,23.6,09.6,0000.0,0014.51,0003.85,0001.82
2021-12-07 08:45:00,,0817.5,5.01,0.00,21.9,21.3,00.0,31.0,23.5,09.7,0000.0,0014.67,0003.94,0001.86
2021-12-07 08:46:00,,0817.5,5.01,0.00,21.9,21.2,00.0,31.0,23.5,09.6,0000.0,0015.65,0003.90,0001.91
2021-12-07 08:47:00,,0817.5,5.00,0.00,21.9,21.2,00.0,31.0,23.6,09.6,0000.0,0016.40,0003.97,0002.00
2021-12-07 08:48:00,,0817.5,4.99,0.00,21.9,21.2,00.0,31.0,23.6,09.4,0000.0,0017.55,0004.12,0002.12
2021-12-07 08:49:00,,0817.5,5.02,0.00,21.9,21.3,00.0,31.0,23.6,09.4,0000.0,0019.65,0004.24,0002.24
2021-12-07 08:50:00,,0817.4,4.98,0.00,21.9,21.3,00.0,31.0,23.6,09.8,0000.0,0019.76,0004.31,0002.29
2021-12-07 08:51:00,,0817.4,5.01,0.00,22.0,21.7,00.0,31.0,23.7,09.9,0000.0,0020.22,0004.42,0002.37
2021-12-07 08:52:00,,0817.4,5.00,0.00,22.1,22.5,00.0,31.1,24.0,10.2,0000.0,0019.95,0004.46,0002.42
2021-12-07 08:53:00,,0817.4,4.99,0.00,22.3,23.2,00.0,31.1,24.3,10.2,0000.0,0020.62,0004.50,0002.42
2021-12-07 08:54:00,,0817.4,5.00,0.00,22.4,23.1,00.0,31.1,24.3,10.6,0000.0,0020.00,0004.32,0002.31
2021-12-07 08:55:00,,0817.4,5.00,0.00,22.4,22.8,00.0,31.2,24.2,11.0,0000.0,0019.18,0004.08,0002.14
2021-12-07 08:56:00,,0817.4,5.01,0.00,22.3,22.5,00.0,31.2,24.1,11.3,0000.0,0017.85,0003.84,0002.00
2021-12-07 08:57:00,,0817.5,5.00,0.00,22.3,22.3,00.0,31.2,24.1,11.3,0000.0,0016.23,0003.64,0001.82
2021-12-07 08:58:00,,0817.4,5.00,0.00,22.3,22.1,00.0,31.2,24.0,11.3,0000.0,0015.00,0003.44,0001.66
2021-12-07 08:59:00,,0817.4,5.00,0.00,22.3,22.0,00.0,31.2,24.0,11.2,0000.0,0013.61,0003.21,0001.44
